• In Hungary
  • List of Countries
  • For 7 days
  • Water Temperature
  • Satellite Maps
  • Weather Map
  • News
  • Weather Widgets
  • user-avatar
    Login

    Hourly Weather Akka

    Today, 23 July, Monday

    Time Temperature Precipitation Wind Pressure Humidity
    00:00 +29°C° 0 mm 3 mps 753 mmHg 81%
    01:00 +28°C° 0 mm 3 mps 753 mmHg 83%
    02:00 +28°C° 0 mm 3 mps 753 mmHg 83%
    03:00 +28°C° 0 mm 3 mps 753 mmHg 84%
    04:00 +28°C° 0 mm 3 mps 753 mmHg 85%
    05:00 +28°C° 0 mm 4 mps 753 mmHg 85%
    06:00 +29°C° 0 mm 4 mps 753 mmHg 79%
    07:00 +30°C° 0 mm 4 mps 753 mmHg 72%
    08:00 +33°C° 0 mm 5 mps 753 mmHg 62%
    09:00 +34°C° 0 mm 5 mps 753 mmHg 57%
    10:00 +36°C° 0 mm 6 mps 753 mmHg 51%
    11:00 +38°C° 0 mm 6 mps 753 mmHg 46%
    12:00 +38°C° 0 mm 6 mps 753 mmHg 45%
    13:00 +38°C° 0 mm 6 mps 753 mmHg 45%
    14:00 +38°C° 0 mm 6 mps 753 mmHg 44%
    15:00 +37°C° 0 mm 5 mps 753 mmHg 45%
    16:00 +36°C° 0 mm 4 mps 753 mmHg 46%
    17:00 +35°C° 0 mm 4 mps 752 mmHg 47%
    18:00 +34°C° 0 mm 3 mps 753 mmHg 53%
    19:00 +33°C° 0 mm 3 mps 753 mmHg 59%
    20:00 +30°C° 0 mm 2 mps 753 mmHg 66%
    21:00 +30°C° 0 mm 2 mps 753 mmHg 69%
    22:00 +29°C° 0 mm 2 mps 753 mmHg 73%
    23:00 +29°C° 0 mm 2 mps 753 mmHg 76%

    Tomorrow, 24 July, Tuesday

    Time Temperature Precipitation Wind Pressure Humidity
    00:00 +29°C° 0 mm 3 mps 753 mmHg 78%
    01:00 +28°C° 0 mm 3 mps 753 mmHg 80%
    02:00 +28°C° 0 mm 3 mps 753 mmHg 82%
    03:00 +28°C° 0 mm 3 mps 753 mmHg 83%
    04:00 +27°C° 0 mm 3 mps 753 mmHg 84%
    05:00 +27°C° 0 mm 3 mps 753 mmHg 84%
    06:00 +29°C° 0 mm 4 mps 753 mmHg 74%
    07:00 +32°C° 0 mm 4 mps 753 mmHg 64%
    08:00 +33°C° 0 mm 4 mps 753 mmHg 54%
    09:00 +35°C° 0 mm 5 mps 753 mmHg 48%
    10:00 +37°C° 0 mm 5 mps 753 mmHg 42%
    11:00 +39°C° 0 mm 5 mps 753 mmHg 37%
    12:00 +39°C° 0 mm 5 mps 753 mmHg 37%
    13:00 +39°C° 0 mm 6 mps 753 mmHg 37%
    14:00 +40°C° 0 mm 6 mps 753 mmHg 37%
    15:00 +39°C° 0 mm 5 mps 753 mmHg 39%
    16:00 +37°C° 0 mm 4 mps 753 mmHg 42%
    17:00 +36°C° 0 mm 4 mps 753 mmHg 44%
    18:00 +35°C° 0 mm 3 mps 753 mmHg 50%
    19:00 +32°C° 0 mm 2 mps 753 mmHg 56%
    20:00 +31°C° 0 mm 1 mps 754 mmHg 62%
    21:00 +31°C° 0 mm 1 mps 754 mmHg 63%
    22:00 +30°C° 0 mm 1 mps 754 mmHg 63%
    23:00 +30°C° 0 mm 2 mps 754 mmHg 64%

    Day after tomorrow, 25 July, Wednesday

    Time Temperature Precipitation Wind Pressure Humidity
    00:00 +30°C° 0 mm 2 mps 754 mmHg 63%
    01:00 +29°C° 0 mm 2 mps 754 mmHg 62%
    02:00 +29°C° 0 mm 2 mps 754 mmHg 61%
    03:00 +29°C° 0 mm 2 mps 754 mmHg 59%
    04:00 +29°C° 0 mm 3 mps 754 mmHg 57%
    05:00 +29°C° 0 mm 3 mps 754 mmHg 55%
    06:00 +31°C° 0 mm 3 mps 754 mmHg 48%
    07:00 +34°C° 0 mm 3 mps 754 mmHg 42%
    08:00 +36°C° 0 mm 3 mps 755 mmHg 35%
    09:00 +37°C° 0 mm 3 mps 755 mmHg 32%
    10:00 +38°C° 0 mm 3 mps 755 mmHg 30%
    11:00 +39°C° 0 mm 3 mps 755 mmHg 27%
    12:00 +40°C° 0 mm 3 mps 754 mmHg 27%
    13:00 +41°C° 0 mm 4 mps 754 mmHg 27%
    14:00 +41°C° 0 mm 4 mps 754 mmHg 27%
    15:00 +40°C° 0 mm 4 mps 754 mmHg 28%
    16:00 +39°C° 0 mm 3 mps 754 mmHg 30%
    17:00 +38°C° 0 mm 3 mps 754 mmHg 31%
    18:00 +36°C° 0 mm 3 mps 754 mmHg 37%
    19:00 +35°C° 0 mm 2 mps 754 mmHg 42%
    20:00 +32°C° 0 mm 1 mps 754 mmHg 48%
    21:00 +32°C° 0 mm 1 mps 754 mmHg 48%
    22:00 +31°C° 0 mm 2 mps 754 mmHg 49%
    23:00 +31°C° 0 mm 2 mps 754 mmHg 50%

    26 July, Thursday

    Time Temperature Precipitation Wind Pressure Humidity
    00:00 +30°C° 0 mm 2 mps 754 mmHg 55%
    01:00 +30°C° 0 mm 2 mps 754 mmHg 60%
    02:00 +29°C° 0 mm 2 mps 754 mmHg 65%
    03:00 +28°C° 0 mm 2 mps 755 mmHg 69%
    04:00 +28°C° 0 mm 2 mps 755 mmHg 74%
    05:00 +28°C° 0 mm 1 mps 755 mmHg 78%
    06:00 +29°C° 0 mm 1 mps 755 mmHg 71%
    07:00 +30°C° 0 mm 2 mps 756 mmHg 64%
    08:00 +31°C° 0 mm 2 mps 756 mmHg 57%
    09:00 +34°C° 0 mm 2 mps 756 mmHg 51%
    10:00 +35°C° 0 mm 3 mps 756 mmHg 44%
    11:00 +37°C° 0 mm 3 mps 756 mmHg 38%
    12:00 +37°C° 0 mm 4 mps 755 mmHg 36%
    13:00 +37°C° 0 mm 4 mps 755 mmHg 35%
    14:00 +37°C° 0 mm 4 mps 755 mmHg 34%
    15:00 +36°C° 0 mm 4 mps 755 mmHg 37%
    16:00 +35°C° 0 mm 4 mps 755 mmHg 40%
    17:00 +34°C° 0 mm 4 mps 755 mmHg 43%
    18:00 +33°C° 0 mm 4 mps 755 mmHg 51%
    19:00 +31°C° 0 mm 3 mps 755 mmHg 58%
    20:00 +29°C° 0 mm 2 mps 756 mmHg 66%
    21:00 +29°C° 0 mm 2 mps 756 mmHg 69%
    22:00 +28°C° 0 mm 2 mps 756 mmHg 73%
    23:00 +28°C° 0 mm 1 mps 756 mmHg 76%

    27 July, Friday

    Time Temperature Precipitation Wind Pressure Humidity
    00:00 +27°C° 0 mm 2 mps 756 mmHg 77%
    01:00 +27°C° 0 mm 2 mps 755 mmHg 79%
    02:00 +27°C° 0 mm 2 mps 755 mmHg 80%
    03:00 +26°C° 0 mm 2 mps 755 mmHg 81%
    04:00 +26°C° 0 mm 2 mps 755 mmHg 82%
    05:00 +26°C° 0 mm 2 mps 756 mmHg 84%
    06:00 +27°C° 0 mm 2 mps 756 mmHg 76%
    07:00 +29°C° 0 mm 2 mps 756 mmHg 68%
    08:00 +30°C° 0 mm 3 mps 756 mmHg 61%
    09:00 +31°C° 0 mm 3 mps 756 mmHg 55%
    10:00 +33°C° 0 mm 4 mps 755 mmHg 50%
    11:00 +35°C° 0 mm 4 mps 755 mmHg 45%
    12:00 +35°C° 0 mm 5 mps 755 mmHg 45%
    13:00 +35°C° 0 mm 5 mps 755 mmHg 45%
    14:00 +35°C° 0 mm 5 mps 754 mmHg 46%
    15:00 +34°C° 0 mm 5 mps 754 mmHg 49%
    16:00 +33°C° 0 mm 5 mps 754 mmHg 52%
    17:00 +33°C° 0 mm 5 mps 754 mmHg 55%
    18:00 +30°C° 0 mm 4 mps 754 mmHg 61%
    19:00 +29°C° 0 mm 4 mps 754 mmHg 67%
    20:00 +28°C° 0 mm 3 mps 755 mmHg 74%
    21:00 +28°C° 0 mm 3 mps 755 mmHg 75%
    22:00 +28°C° 0 mm 3 mps 755 mmHg 76%
    23:00 +28°C° 0 mm 3 mps 755 mmHg 78%

    28 July, Saturday

    Time Temperature Precipitation Wind Pressure Humidity
    00:00 +28°C° 0 mm 3 mps 754 mmHg 78%
    01:00 +27°C° 0 mm 3 mps 754 mmHg 79%
    02:00 +27°C° 0 mm 3 mps 754 mmHg 80%
    03:00 +27°C° 0 mm 3 mps 754 mmHg 80%
    04:00 +27°C° 0 mm 3 mps 754 mmHg 81%
    05:00 +27°C° 0 mm 3 mps 754 mmHg 82%
    06:00 +28°C° 0 mm 3 mps 754 mmHg 75%
    07:00 +29°C° 0 mm 4 mps 754 mmHg 68%
    08:00 +30°C° 0 mm 4 mps 754 mmHg 62%
    09:00 +32°C° 0 mm 4 mps 754 mmHg 57%
    10:00 +33°C° 0 mm 5 mps 754 mmHg 52%
    11:00 +34°C° 0 mm 5 mps 753 mmHg 47%
    12:00 +34°C° 0 mm 5 mps 753 mmHg 47%
    13:00 +35°C° 0 mm 5 mps 753 mmHg 46%
    14:00 +35°C° 0 mm 6 mps 753 mmHg 46%
    15:00 +34°C° 0 mm 5 mps 753 mmHg 49%
    16:00 +33°C° 0 mm 5 mps 753 mmHg 51%
    17:00 +32°C° 0 mm 4 mps 752 mmHg 54%
    18:00 +30°C° 0 mm 4 mps 753 mmHg 59%
    19:00 +29°C° 0 mm 3 mps 753 mmHg 64%
    20:00 +28°C° 0 mm 3 mps 753 mmHg 69%
    21:00 +28°C° 0 mm 2 mps 753 mmHg 72%
    22:00 +27°C° 0 mm 2 mps 753 mmHg 74%
    23:00 +27°C° 0 mm 2 mps 753 mmHg 76%
    Show more